Home > Weather > Al Khor > Past weeks

Flag for Qatar Weather for the Past 2 Weeks in Al Khor, Qatar

Now
64 °F

Sunny.


Feels Like: 64 °F
Forecast: 65 / 75 °F
Wind: 6 mph from Southeast

Location: Doha International Airport

Current Time: Feb 7, 2016 at 9:19:04 AM

Latest Report: Feb 7, 2016 at 8:00 AM


Visibility: 10 mi

Pressure: 30.07 "Hg

Humidity: 73%

Dew point: 55 °F

Location of Al KhorLocation

Historic Weather in Al Khor — Graph

°F

Al Khor Temperature Yesterday

Maximum temperature yesterday: 75 °F (at 12:30 PM)
Minimum temperature yesterday: 55 °F (at 6:00 AM)
Average temperature yesterday: 65 °F

High & Low Weather Summary for the Past Weeks

 TemperatureHumidityPressure
High81 °F (Jan 23, 1:00 PM)94% (Jan 24, 12:00 AM)30.33 "Hg (Jan 24, 12:00 AM)
Low50 °F (Jan 30, 5:00 AM)15% (Feb 6, 2:00 PM)29.92 "Hg (Jan 25, 3:00 AM)
Average64 °F56%30.13 "Hg
* Reported Jan 23 9:00 AM — Feb 7 8:00 AM, Al Khor, Weather by CustomWeather, © 2016

Note: Actual official high and low records may vary slightly from our data, if they occured in-between our weather recording intervals... More about our weather records

Advertising

Al Khor Weather History for the Previous 24 Hours

 ConditionsComfort  
Time TempWeatherWind HumidityBarometerVisibility
8:00 AM
Sun, Feb 7
64 °FSunny.6 mph73%30.07 "Hg10 mi
7:30 AM61 °FSunny.5 mph77%30.04 "Hg10 mi
7:00 AM59 °FSunny.3 mph82%30.04 "Hg10 mi
6:30 AM61 °FSunny.3 mph83%30.04 "Hg10 mi
6:00 AM59 °FClear.3 mph88%30.04 "Hg6 mi
5:30 AM57 °FClear.1 mph88%30.04 "Hg5 mi
5:00 AM57 °FClear.2 mph88%30.04 "Hg5 mi
4:00 AM57 °FClear.2 mph82%30.01 "Hg5 mi
3:00 AM57 °FClear.1 mph88%30.01 "Hg5 mi
2:00 AM57 °FClear.No wind88%30.01 "Hg4 mi
1:00 AM59 °FClear.2 mph82%30.04 "Hg4 mi
12:00 AM61 °FClear.No wind77%30.04 "Hg4 mi
11:00 PM
Sat, Feb 6
63 °FClear.1 mph77%30.04 "Hg6 mi
10:00 PM63 °FClear.5 mph73%30.04 "Hg6 mi
9:30 PM63 °FClear.2 mph73%30.07 "Hg10 mi
9:00 PM63 °FClear.No wind68%30.07 "Hg10 mi
8:00 PM63 °FClear.3 mph64%30.07 "Hg10 mi
7:00 PM66 °FClear.3 mph52%30.04 "Hg10 mi
6:30 PM66 °FClear.3 mph49%30.04 "Hg10 mi
6:00 PM66 °FClear.5 mph52%30.04 "Hg10 mi
5:30 PM68 °FClear.5 mph40%30.04 "Hg10 mi
5:00 PM70 °FSunny.7 mph38%30.04 "Hg10 mi
4:00 PM72 °FSunny.7 mph38%30.04 "Hg10 mi
3:00 PM73 °FSunny.8 mph20%30.07 "Hg10 mi
2:30 PM73 °FSunny.8 mph25%30.07 "Hg10 mi
2:00 PM75 °FSunny.2 mph15%30.07 "Hg10 mi
1:30 PM75 °FSunny.2 mph18%30.07 "Hg10 mi
1:00 PM75 °FSunny.2 mph19%30.09 "Hg10 mi
12:30 PM75 °FSunny.2 mph18%30.09 "Hg10 mi
12:00 PM73 °FPassing clouds.3 mph19%30.12 "HgN/A
11:00 AM70 °FPassing clouds.5 mph35%30.15 "HgN/A
10:30 AM66 °FPassing clouds.5 mph49%30.15 "HgN/A
10:00 AM64 °FPassing clouds.6 mph60%30.18 "HgN/A
9:30 AM63 °FClear.3 mph64%30.18 "Hg5 mi
9:00 AM61 °FPassing clouds.3 mph72%30.18 "Hg4 mi
Weather by CustomWeather, © 2016

See weather overviewHow to use our weather pages